Miscellaneous Local Product
Issued by NWS Hastings, NE

Home | Current Version | Previous Version | Graphics & Text | Print | Product List | Glossary On
Versions: 1 2 3 4 5 6 7 8 9 10 11 12 13 14 15 16 17 18 19 20 21 22 23 24 25 26 27 28 29 30 31 32 33 34 35 36 37 38 39 40 41 42 43 44 45 46 47 48 49 50
000
AXUS43 KGID 221302
MISGRI

GID CWA HOURLY WEATHER ROUNDUP
NATIONAL WEATHER SERVICE HASTINGS NE
800 AM CDT MON SEP 22 2014

NOTE: "FAIR" INDICATES FEW OR NO CLOUDS BELOW 12,000 FEET WITH NO
SIGNIFICANT WEATHER AND/OR OBSTRUCTIONS TO VISIBILITY.

...SOUTH CENTRAL NEBRASKA...

CITY           SKY/WX    TMP DP  RH WIND       PRES   REMARKS
GRAND ISLAND   CLEAR     48  43  82 SW5       30.32S
HASTINGS       CLEAR     51  43  74 S5        30.32R
KEARNEY        PTCLDY    48  43  81 S5        30.31F
ORD            CLEAR     40  39  97 CALM      30.29S
YORK           CLEAR     43  43 100 W6        30.32S
AURORA         CLEAR     47  45  91 CALM      30.31F
LEXINGTON      CLEAR     51  47  87 S7        30.30S
HOLDREGE       CLEAR     49  45  84 CALM      30.30S
HEBRON         CLEAR     43  41  93 CALM      30.33S

...NEBRASKA PANHANDLE...

CITY           SKY/WX    TMP DP  RH WIND       PRES   REMARKS
CHADRON        CLOUDY    59  42  53 S12       30.12S
ALLIANCE       MOCLDY    55  41  59 SE17      30.17F
SCOTTSBLUFF    MOCLDY    57  43  59 SE9       30.15F
SIDNEY         CLOUDY    58  41  53 S14       30.21F

...WESTERN AND NORTH CENTRAL NEBRASKA...

CITY           SKY/WX    TMP DP  RH WIND       PRES   REMARKS
VALENTINE      PTCLDY    53  43  68 S5        30.22F
AINSWORTH      CLEAR     50  44  79 S10       30.25S
ONEILL         CLEAR     46  44  93 S5        30.28S
BROKEN BOW     CLEAR     42  40  92 SE3       30.29S
IMPERIAL       MOCLDY    57  41  55 SE9       30.25F
NORTH PLATTE   CLEAR     52  45  77 S7        30.27S
MCCOOK         PTCLDY    53  44  71 SE5       30.29S

...EASTERN NEBRASKA...

CITY           SKY/WX    TMP DP  RH WIND       PRES   REMARKS
NORFOLK        CLEAR     43  42  97 CALM      30.30S
SO SIOUX CITY  CLEAR     47  45  93 E5        30.30F
TEKAMAH        FOG       44  43  96 CALM      30.31F VSB 1/4
COLUMBUS       CLEAR     39  37  93 CALM      30.32S
ALBION         CLEAR     40  38  92 CALM      30.30F
OMAHA EPPLEY   PTCLDY    49  48  97 CALM      30.32S
OFFUTT AFB     CLEAR     46  46 100 E3        30.31S FOG
MILLARD        CLEAR     49  48  97 CALM      30.32S
LINCOLN        CLEAR     48  44  86 CALM      30.32S
NEBRASKA CITY    N/A     51  49  92 CALM      30.32S
BEATRICE       CLEAR     43  42  96 CALM      30.31S
FALLS CITY     CLEAR     47  46  97 CALM      30.32R

...NORTHERN KANSAS...

CITY           SKY/WX    TMP DP  RH WIND       PRES   REMARKS
GOODLAND       CLEAR     50  43  77 S10       30.29F
HILL CITY      CLEAR     55  45  68 S3        30.32R
NORTON         SUNNY     54  43  66 SE5       30.29S
SMITH CENTER     N/A     48  45  87 E6        30.32S FOG
BELOIT         CLEAR     46  45  93 CALM      30.31S
HAYS           MOCLDY    54  45  71 SE6       30.32S
RUSSELL        CLEAR     51  46  83 S7        30.31R
CONCORDIA      CLEAR     46  46 100 CALM      30.32S
SALINA         CLEAR     51  46  83 CALM      30.33R
TOPEKA         CLEAR     49  49 100 CALM      30.33R



USA.gov is the U.S. government's official web portal to all federal, state and local government web resources and services.